Total_Precipitation_Accumulation
1.98 1.86 1.39 0.82 0.66 0.49 0.43 0.46 0.44 0.38 0.41 0.51 0.54 0.55 0.61 0.62 0.62 0.67 0.70 0.67 0.67 0.80 1.08 1.20 1.28 1.58 1.85 1.99 2.16 2.32 2.43 2.53 2.78 2.97 2.96 2.84 2.67 2.42 2.29 2.26 2.18 2.10 2.03 2.08
1.73 1.30 0.78 0.59 0.59 0.57 0.53 0.54 0.50 0.42 0.38 0.50 0.54 0.54 0.51 0.50 0.60 0.72 0.72 0.73 0.77 0.79 0.96 1.08 1.16 1.32 1.54 1.77 1.98 2.22 2.34 2.44 2.46 2.52 2.76 2.91 2.95 2.76 2.47 2.29 2.20 2.11 2.05 2.08
1.29 0.80 0.61 0.71 0.68 0.67 0.57 0.49 0.44 0.44 0.44 0.52 0.53 0.56 0.46 0.47 0.54 0.62 0.67 0.70 0.71 0.76 0.85 0.94 1.06 1.28 1.39 1.53 1.77 2.07 2.23 2.36 2.39 2.43 2.69 2.91 3.07 2.90 2.56 2.20 2.02 2.02 2.04 2.08
1.13 0.70 0.67 0.78 0.65 0.56 0.55 0.33 0.32 0.36 0.54 0.64 0.56 0.74 0.51 0.49 0.52 0.58 0.65 0.64 0.64 0.68 0.72 0.77 0.88 1.07 1.20 1.36 1.53 1.71 1.92 2.09 2.29 2.39 2.46 2.51 2.62 2.61 2.35 2.23 2.11 2.09 2.09 2.09
1.08 0.75 0.76 0.79 0.55 0.46 0.46 0.30 0.34 0.38 0.52 0.61 0.48 0.67 0.57 0.39 0.45 0.57 0.67 0.66 0.65 0.69 0.71 0.71 0.84 1.03 1.09 1.19 1.42 1.57 1.66 1.85 2.09 2.25 2.30 2.43 2.42 2.44 2.50 2.46 2.35 2.22 2.15 2.09
0.81 0.66 0.77 0.67 0.50 0.47 0.48 0.46 0.51 0.51 0.72 0.79 0.38 0.53 0.57 0.42 0.49 0.52 0.53 0.58 0.64 0.70 0.76 0.81 0.93 1.02 1.04 1.10 1.27 1.48 1.49 1.58 1.76 2.02 2.24 2.30 2.24 2.28 2.32 2.32 2.26 2.22 2.18 2.13
1.03 0.78 0.66 0.60 0.70 0.62 0.60 0.77 1.09 1.13 1.04 0.59 0.26 0.41 0.58 0.43 0.44 0.47 0.48 0.51 0.57 0.67 0.72 0.80 0.90 0.91 0.95 1.04 1.15 1.32 1.41 1.48 1.59 1.76 1.96 2.14 2.23 2.24 2.24 2.26 2.21 2.11 2.01 1.91
1.01 1.05 0.66 0.57 0.69 0.71 0.57 0.62 0.82 0.81 0.50 0.33 0.26 0.41 0.50 0.41 0.37 0.33 0.34 0.40 0.49 0.58 0.59 0.64 0.75 0.83 0.91 0.99 1.05 1.09 1.15 1.21 1.29 1.38 1.52 1.71 1.97 2.09 2.02 2.01 1.98 1.94 1.86 1.83
0.67 0.68 0.42 0.37 0.40 0.47 0.61 0.58 0.44 0.69 0.51 0.42 0.33 0.35 0.37 0.30 0.30 0.29 0.32 0.39 0.49 0.58 0.62 0.61 0.68 0.71 0.79 0.90 1.01 1.00 0.99 1.04 1.13 1.17 1.25 1.37 1.60 1.76 1.80 1.83 1.77 1.68 1.64 1.69
0.44 0.51 0.36 0.33 0.41 0.43 0.44 0.45 0.57 0.96 0.83 0.58 0.35 0.33 0.47 0.37 0.30 0.32 0.38 0.42 0.51 0.63 0.63 0.59 0.63 0.66 0.69 0.78 0.89 0.93 0.94 0.96 1.09 1.13 1.15 1.23 1.33 1.43 1.59 1.67 1.57 1.51 1.49 1.51
0.35 0.50 0.44 0.40 0.44 0.38 0.34 0.47 0.56 0.67 0.65 0.66 0.44 0.45 0.51 0.44 0.38 0.38 0.40 0.46 0.56 0.61 0.64 0.65 0.67 0.68 0.71 0.78 0.80 0.83 0.90 0.94 1.05 1.09 1.05 1.06 1.12 1.17 1.27 1.35 1.40 1.34 1.34 1.33
0.28 0.43 0.43 0.30 0.21 0.21 0.30 0.34 0.46 0.76 0.58 0.48 0.49 0.53 0.44 0.38 0.37 0.37 0.38 0.43 0.50 0.51 0.58 0.63 0.63 0.64 0.70 0.75 0.75 0.72 0.79 0.85 0.96 1.00 0.95 0.94 0.99 1.05 1.09 1.13 1.22 1.23 1.22 1.22
0.43 0.60 0.61 0.46 0.41 0.39 0.43 0.32 0.34 0.58 0.76 0.58 0.57 0.58 0.41 0.32 0.32 0.34 0.37 0.42 0.41 0.41 0.43 0.48 0.52 0.52 0.55 0.57 0.60 0.66 0.68 0.66 0.72 0.77 0.75 0.75 0.77 0.84 0.92 0.97 0.99 1.04 1.09 1.12
0.67 0.65 0.54 0.53 0.49 0.58 0.54 0.31 0.29 0.73 0.98 0.52 0.37 0.43 0.37 0.34 0.38 0.40 0.40 0.40 0.35 0.34 0.34 0.40 0.48 0.44 0.45 0.47 0.50 0.56 0.56 0.56 0.62 0.64 0.63 0.64 0.67 0.69 0.75 0.81 0.81 0.83 0.87 0.94
0.58 0.58 0.33 0.34 0.38 0.55 0.50 0.33 0.30 0.50 0.49 0.51 0.33 0.32 0.38 0.40 0.48 0.47 0.44 0.37 0.30 0.28 0.29 0.34 0.44 0.47 0.44 0.45 0.46 0.48 0.53 0.59 0.65 0.68 0.67 0.65 0.65 0.65 0.68 0.74 0.75 0.73 0.74 0.74
0.51 0.57 0.40 0.37 0.34 0.45 0.38 0.23 0.22 0.25 0.26 0.29 0.25 0.32 0.34 0.37 0.42 0.45 0.44 0.35 0.27 0.25 0.26 0.28 0.36 0.51 0.46 0.46 0.50 0.52 0.58 0.68 0.71 0.74 0.71 0.69 0.65 0.63 0.61 0.62 0.64 0.65 0.66 0.66
0.53 0.68 0.83 0.63 0.32 0.42 0.41 0.28 0.26 0.26 0.26 0.27 0.34 0.34 0.29 0.34 0.41 0.42 0.37 0.28 0.24 0.23 0.23 0.26 0.32 0.47 0.53 0.54 0.59 0.64 0.68 0.75 0.77 0.78 0.73 0.68 0.65 0.62 0.61 0.58 0.58 0.62 0.65 0.68
0.41 0.66 1.02 0.86 0.55 0.60 0.43 0.30 0.28 0.28 0.27 0.25 0.27 0.24 0.24 0.30 0.34 0.32 0.27 0.24 0.21 0.19 0.20 0.23 0.28 0.34 0.45 0.48 0.53 0.60 0.66 0.77 0.81 0.81 0.80 0.78 0.77 0.78 0.81 0.80 0.82 0.82 0.80 0.83
0.21 0.55 0.92 0.83 0.62 0.36 0.21 0.18 0.26 0.33 0.33 0.25 0.21 0.18 0.15 0.18 0.25 0.30 0.24 0.23 0.23 0.22 0.20 0.21 0.24 0.26 0.31 0.39 0.43 0.49 0.61 0.76 0.89 0.96 0.98 1.00 1.03 1.08 1.11 1.13 1.13 1.13 1.14 1.14
0.17 0.39 0.82 0.79 0.67 0.36 0.22 0.11 0.13 0.23 0.39 0.19 0.14 0.15 0.14 0.14 0.26 0.33 0.30 0.26 0.25 0.24 0.23 0.22 0.23 0.25 0.28 0.38 0.45 0.55 0.72 0.88 0.99 1.04 1.09 1.14 1.21 1.27 1.25 1.23 1.20 1.13 1.10 1.12
0.29 0.50 0.71 0.67 0.65 0.36 0.23 0.11 0.09 0.33 0.46 0.20 0.16 0.17 0.18 0.22 0.30 0.26 0.24 0.27 0.27 0.28 0.31 0.32 0.33 0.37 0.39 0.44 0.55 0.70 0.82 0.94 1.00 1.00 1.00 1.03 1.04 1.07 1.04 1.02 0.98 0.94 0.91 0.87
0.29 0.41 0.45 0.49 0.66 0.50 0.26 0.18 0.31 0.44 0.28 0.20 0.16 0.16 0.18 0.19 0.18 0.16 0.15 0.18 0.22 0.25 0.31 0.40 0.46 0.51 0.51 0.55 0.64 0.73 0.77 0.79 0.78 0.77 0.74 0.72 0.68 0.65 0.65 0.68 0.69 0.68 0.67 0.65
0.33 0.44 0.47 0.50 0.56 0.45 0.33 0.37 0.40 0.32 0.27 0.20 0.17 0.16 0.16 0.16 0.16 0.14 0.12 0.12 0.13 0.14 0.17 0.22 0.30 0.36 0.37 0.38 0.43 0.48 0.46 0.43 0.41 0.40 0.42 0.40 0.37 0.37 0.38 0.42 0.45 0.48 0.50 0.51
0.31 0.27 0.34 0.41 0.40 0.32 0.30 0.30 0.29 0.27 0.26 0.23 0.20 0.18 0.17 0.18 0.17 0.15 0.13 0.12 0.11 0.11 0.12 0.13 0.14 0.17 0.18 0.19 0.21 0.24 0.23 0.20 0.21 0.24 0.27 0.30 0.30 0.31 0.32 0.35 0.39 0.43 0.46 0.46
0.27 0.26 0.32 0.37 0.31 0.27 0.23 0.23 0.23 0.22 0.20 0.19 0.18 0.18 0.18 0.18 0.19 0.17 0.16 0.15 0.14 0.14 0.14 0.14 0.15 0.16 0.17 0.17 0.18 0.18 0.19 0.17 0.18 0.19 0.22 0.26 0.29 0.32 0.32 0.32 0.37 0.44 0.47 0.53
0.25 0.32 0.42 0.42 0.30 0.33 0.28 0.20 0.19 0.19 0.18 0.19 0.20 0.21 0.21 0.20 0.22 0.19 0.18 0.18 0.18 0.18 0.17 0.16 0.17 0.19 0.21 0.23 0.25 0.24 0.24 0.22 0.22 0.23 0.24 0.28 0.31 0.32 0.33 0.34 0.34 0.40 0.45 0.51